Probability
14 13 10 8 6 6 7 7 7 8 7 5 4 4 5 8 12 14 16 18 19 20 21 21 19 18 17 18 21 25 29 31 33 35 35 32 30 30 28 25 24 24 24
13 13 11 8 7 6 7 7 7 7 7 5 3 3 5 8 10 13 14 16 17 19 20 21 21 19 18 18 19 23 29 33 34 34 35 31 28 29 29 27 24 22 22
12 12 12 9 6 6 6 6 6 6 6 5 3 3 4 6 8 10 11 13 14 16 18 20 21 21 20 19 19 21 28 34 35 34 34 31 28 29 30 28 24 21 20
10 11 11 8 6 5 5 5 4 4 4 4 3 2 2 4 5 6 7 9 11 13 14 16 19 20 21 20 19 20 25 31 33 34 33 31 29 30 30 27 24 21 20
7 8 8 6 5 6 6 5 4 3 3 3 3 2 2 3 4 4 4 6 8 10 11 13 16 17 19 20 19 20 23 28 31 32 33 33 31 29 27 25 24 23 21
5 6 6 5 5 6 7 6 5 4 3 3 3 3 3 4 4 3 3 4 6 7 8 11 13 13 15 18 19 20 23 26 29 30 33 35 33 29 25 23 23 22 19
5 6 6 6 5 6 7 7 5 4 3 3 4 4 3 3 4 4 3 4 4 6 7 9 11 12 14 16 19 21 22 24 25 26 30 33 32 29 27 23 20 17 16
5 6 7 7 6 6 7 8 7 5 4 4 5 5 4 2 1 2 3 4 5 6 8 8 11 14 16 16 17 20 22 23 23 23 26 29 28 26 26 24 19 15 14
5 7 8 8 7 6 7 8 8 6 4 4 5 6 5 3 1 1 2 3 4 7 9 9 9 14 16 17 17 19 22 23 21 21 23 24 22 20 21 23 22 18 15
6 9 10 10 8 7 8 9 8 6 4 4 4 4 5 5 4 3 3 3 5 7 10 10 10 12 14 16 17 17 19 19 17 19 20 20 18 17 17 19 21 19 15
7 10 12 11 10 9 9 9 7 5 4 3 3 3 5 6 6 6 5 6 7 8 11 13 13 12 13 14 15 14 12 12 12 14 16 17 15 13 13 14 16 16 14
7 8 10 12 12 10 9 8 7 5 3 2 2 4 5 6 8 8 7 7 8 9 12 14 14 13 12 10 10 9 8 6 7 9 10 11 10 9 9 10 12 12 11
6 6 7 10 10 9 7 6 6 5 4 3 3 5 6 8 10 9 7 7 8 10 12 12 12 12 11 9 7 6 5 3 2 4 4 4 4 5 6 7 9 10 9
4 4 5 6 6 4 4 5 6 6 5 4 4 5 6 7 9 9 6 6 7 8 9 9 9 9 10 9 6 4 3 1 0 1 1 1 1 3 4 5 7 9 9
3 3 2 3 3 2 2 4 5 5 4 3 3 4 5 5 6 6 6 5 6 7 7 7 6 7 8 7 5 4 3 1 0 0 0 0 0 1 2 2 3 6 7
3 2 1 1 3 3 3 3 4 4 3 3 3 3 3 3 3 4 5 5 5 5 5 4 4 5 5 5 4 4 3 1 0 0 0 0 0 0 0 0 1 2 3
3 2 1 1 2 2 2 2 3 3 3 3 3 3 3 3 4 4 4 4 4 4 3 2 2 4 5 5 4 3 3 2 0 0 0 0 0 0 0 0 0 1 1
3 2 1 0 1 1 0 1 1 3 3 3 3 3 3 4 5 5 4 4 4 3 3 2 1 2 5 6 5 4 3 2 0 0 0 0 0 0 0 0 0 0 0
2 1 0 0 0 0 0 0 1 2 3 3 3 3 3 5 6 6 5 4 3 3 3 2 1 2 3 5 6 5 3 2 0 0 0 0 0 0 0 0 0 0 0
1 0 0 0 0 0 0 0 0 1 1 2 1 1 2 3 5 5 4 3 3 3 3 3 2 2 3 4 5 4 3 2 1 1 1 0 0 0 0 0 0 0 0
0 0 0 0 0 0 0 0 0 0 0 0 0 0 1 1 2 3 3 2 3 3 3 3 3 3 3 3 3 2 1 1 2 2 2 1 0 0 0 0 0 0 0
0 0 0 0 0 0 0 0 0 0 0 0 0 0 0 0 0 1 1 1 1 2 3 3 3 3 3 3 3 2 1 1 1 1 2 1 0 0 0 0 0 0 0
0 0 0 0 0 0 0 0 0 0 1 0 0 0 0 0 0 0 0 0 0 1 1 2 3 3 3 4 4 4 3 2 2 1 1 1 0 0 0 0 0 0 0
0 0 0 0 0 0 0 0 0 0 0 0 0 0 0 0 0 0 0 0 0 0 0 1 2 2 3 4 5 4 3 3 2 1 1 0 0 0 0 0 0 0 0
0 0 0 0 0 0 0 0 0 0 0 0 0 0 0 0 0 0 0 0 0 0 0 0 1 1 1 2 3 4 3 1 1 1 0 0 0 0 0 0 0 0 0
0 0 0 0 0 0 0 0 0 0 0 0 0 0 0 0 0 0 0 0 0 0 0 0 0 0 0 0 1 3 2 1 0 0 0 0 0 0 0 0 0 0 0
Wind_Speed
3 2 2 2 4 3 4 4 4 4 6 7 7 7 8 8 8 7 4 7 9 10 11 11 12 13 12 12 12 11 11 11 12 12 12 11 11 11 12 11 11 11 12
2 3 3 3 3 3 3 4 5 5 5 5 7 7 8 8 8 8 7 6 9 10 11 11 12 12 12 12 12 11 11 11 11 11 11 11 11 11 11 12 12 12 12
3 3 3 3 3 3 3 4 5 5 5 5 6 7 7 8 8 8 8 7 7 9 10 10 11 11 11 11 11 12 11 11 11 11 11 11 11 11 11 11 12 12 12
4 4 3 3 3 3 3 3 4 4 5 5 5 5 6 6 8 8 8 8 7 6 8 10 10 10 11 11 11 11 11 11 11 11 11 11 11 11 12 12 12 12 12
4 4 3 2 4 4 3 4 3 4 5 5 5 5 6 6 6 7 8 8 7 7 6 7 10 10 11 11 11 12 12 12 12 12 12 12 12 12 12 12 12 12 12
4 3 3 2 4 3 3 4 4 4 5 5 6 6 6 6 6 6 7 6 6 7 7 7 7 8 11 11 11 12 12 13 12 12 12 12 12 12 13 13 12 12 12
3 3 3 2 3 3 4 4 5 5 5 4 5 5 5 6 6 5 5 6 6 6 7 7 6 5 6 11 10 10 11 11 11 11 13 12 11 12 13 13 13 12 12
3 2 3 3 3 3 4 4 5 5 4 4 5 5 5 5 5 5 5 5 6 6 6 7 6 6 6 5 6 10 10 10 11 11 11 12 12 12 13 13 14 14 13
2 3 3 4 3 4 3 4 4 5 5 4 4 4 5 5 4 4 5 5 5 5 6 6 7 7 7 6 5 8 9 8 9 11 10 10 11 12 13 13 14 14 14
2 3 3 3 4 4 3 4 3 4 5 5 4 4 5 6 6 5 5 5 5 6 6 6 5 5 6 6 5 3 5 6 7 8 9 9 10 10 12 13 13 14 14
2 2 3 3 3 3 3 4 3 4 4 5 5 5 5 5 8 7 6 5 5 5 5 5 5 5 5 5 5 4 3 4 5 5 6 8 9 10 11 12 13 12 13
2 2 3 3 3 3 3 4 4 5 4 5 6 6 5 5 5 6 7 7 6 5 5 4 5 5 4 5 5 2 4 4 4 5 6 7 8 9 11 12 12 12 13
2 2 3 3 3 3 4 4 4 4 5 5 6 6 5 6 6 6 7 7 7 5 5 5 5 4 4 4 3 3 5 5 5 6 6 6 7 8 9 10 11 11 12
2 3 3 3 3 4 4 4 4 4 4 5 6 6 5 5 5 6 6 6 7 5 5 5 4 4 4 4 2 5 5 7 6 6 7 7 7 7 8 8 9 9 9
2 2 3 3 3 3 4 4 3 4 4 4 5 5 5 4 5 5 5 6 6 7 5 4 4 4 4 3 2 4 5 6 7 7 7 6 6 7 7 7 8 8 8
2 2 3 3 3 3 3 4 3 3 4 4 3 4 5 5 4 4 5 5 5 6 6 4 4 4 4 4 4 5 6 7 9 8 7 6 6 6 6 7 7 8 8
2 2 2 2 2 2 3 3 3 3 4 4 4 4 5 5 4 4 4 4 5 5 6 5 4 3 4 5 4 4 5 5 5 9 8 6 6 6 6 6 6 6 7
3 2 2 2 2 2 3 3 4 4 4 4 4 4 5 4 4 4 4 4 4 4 6 6 5 4 4 4 4 5 5 4 4 7 9 8 7 6 6 6 6 7 7
2 2 2 2 2 3 3 3 3 4 4 4 5 5 5 5 5 4 4 4 4 4 4 5 5 3 3 3 4 4 4 3 4 5 8 10 9 8 8 7 7 7 8
1 2 2 2 3 3 3 4 3 3 4 4 5 5 5 6 5 5 4 5 4 5 4 4 4 4 3 3 3 3 3 3 4 4 4 5 7 9 9 9 8 8 7
2 2 2 2 3 3 3 5 4 4 4 5 5 5 5 5 5 5 5 5 5 5 4 4 4 4 3 2 3 3 4 4 3 3 4 4 4 5 6 9 10 9 8
2 2 2 3 3 3 5 5 6 5 5 5 5 5 4 3 3 4 4 5 6 6 6 5 4 4 4 4 3 4 4 4 4 3 4 4 4 5 5 5 6 9 9
2 3 3 3 3 3 4 5 6 6 5 5 5 5 5 4 4 5 3 4 5 6 7 7 6 6 5 4 4 5 5 5 5 3 4 5 4 5 5 4 7 9 9
2 3 3 3 3 3 2 4 6 5 5 4 5 5 5 4 5 6 6 5 5 4 4 5 4 5 5 5 5 6 6 5 5 5 5 5 5 5 5 4 7 10 10
3 3 3 3 4 3 2 4 7 5 3 4 3 4 4 4 4 5 5 5 5 4 3 3 4 5 6 6 6 6 6 6 6 4 3 4 5 4 5 5 5 10 10
3 3 2 3 3 3 2 3 6 4 4 4 3 2 1 3 4 5 5 5 6 5 5 4 4 6 7 6 8 8 7 6 6 5 3 4 4 5 4 4 4 5 7
Wind_Direction
237 235 244 262 275 275 261 260 262 267 262 251 250 251 254 251 253 253 237 213 230 238 242 242 241 240 239 235 231 228 225 223 222 222 223 223 222 223 223 221 220 219 219
249 253 246 255 268 273 282 274 271 266 261 265 261 255 256 256 250 252 254 224 217 229 238 241 241 239 237 236 232 227 225 223 224 223 223 223 222 221 221 222 220 220 221
254 257 257 255 269 275 270 267 272 268 263 260 263 266 261 256 253 250 253 253 233 218 225 234 239 238 237 237 235 233 229 226 226 223 222 221 219 219 220 221 221 220 219
252 257 263 268 279 266 260 266 267 273 274 272 270 267 264 257 252 247 248 247 248 243 220 219 230 234 234 235 234 231 230 229 227 224 222 220 219 220 220 221 222 221 220
248 257 266 279 270 268 272 275 278 281 280 277 273 267 263 255 254 250 249 250 247 245 247 209 214 228 231 234 236 234 233 230 227 225 224 223 222 219 220 220 219 220 220
247 267 265 268 272 273 274 281 285 277 278 276 279 277 269 263 256 253 252 247 244 242 244 244 223 217 220 228 233 235 235 234 231 228 227 227 224 220 218 218 218 217 218
249 258 279 269 273 273 274 274 276 270 270 276 273 271 261 251 246 249 250 251 242 240 243 243 244 242 215 211 223 232 235 236 233 233 231 229 225 221 218 219 220 219 219
259 250 270 270 274 274 266 269 271 278 280 276 281 285 273 251 229 240 240 244 250 246 243 240 240 240 249 231 198 216 232 237 238 238 238 233 225 221 221 221 221 221 220
255 275 268 276 275 268 267 267 268 270 277 274 270 279 284 281 286 241 241 245 249 251 251 250 241 236 238 244 233 201 213 228 237 240 240 237 228 225 225 223 223 222 222
255 261 266 268 272 274 274 268 276 277 273 274 268 260 270 294 285 275 246 235 243 248 251 251 248 245 247 243 232 238 207 217 229 237 238 237 231 229 228 227 225 224 224
259 270 268 266 269 272 275 284 287 278 274 278 280 272 265 259 261 273 277 267 250 242 241 244 245 247 248 246 242 235 198 206 223 237 245 246 238 230 229 230 229 229 229
258 271 264 262 267 281 277 275 276 270 279 285 283 276 269 266 263 265 270 269 266 257 248 248 246 239 234 235 237 215 197 204 221 233 241 245 246 235 231 231 230 231 235
285 293 282 274 278 277 277 283 276 278 274 277 277 281 274 271 275 274 272 273 274 267 252 241 237 242 238 231 222 200 204 208 226 229 235 240 243 241 234 232 228 230 236
310 319 300 293 293 292 292 290 281 278 279 280 286 292 280 271 272 271 273 275 270 264 256 258 248 240 244 242 219 218 220 200 220 221 225 231 236 239 234 230 228 228 232
305 305 296 303 311 309 305 297 299 297 294 286 290 289 284 278 272 270 267 268 273 275 270 259 259 245 239 234 221 243 247 199 206 212 218 222 229 230 232 231 230 228 227
310 287 293 299 302 302 307 308 305 313 301 292 291 299 293 288 287 277 267 263 264 272 279 285 282 274 266 257 204 241 246 203 204 204 206 209 216 221 226 229 231 228 226
282 272 280 289 296 301 310 309 311 314 303 296 291 288 289 297 291 285 276 268 263 266 274 284 280 274 265 266 258 254 245 235 207 189 194 202 209 218 226 231 231 227 223
280 286 296 304 303 309 309 300 305 313 313 310 308 301 295 296 302 297 295 283 280 276 272 280 284 276 265 260 260 259 254 245 241 184 185 195 205 212 219 226 229 231 229
306 321 322 320 313 309 306 304 304 311 317 319 317 311 300 294 292 295 295 293 289 280 274 274 276 281 275 275 274 264 260 260 254 202 189 195 206 212 217 219 221 226 229
332 331 327 324 317 311 309 304 301 311 317 317 317 312 308 301 295 292 287 288 288 290 279 269 269 267 269 269 264 269 262 245 248 241 230 216 202 207 216 219 218 221 224
312 321 320 320 319 315 321 316 305 309 315 315 315 310 313 320 325 311 308 308 300 292 289 279 274 275 273 280 272 270 266 261 249 250 249 239 220 225 221 218 215 218 221
318 320 319 317 317 337 12 348 314 311 318 316 314 314 312 298 299 272 274 287 293 291 295 292 285 286 288 288 288 280 278 274 272 254 252 256 247 244 240 236 204 200 212
310 313 312 313 318 357 359 332 313 302 309 316 317 317 315 328 314 307 287 258 264 262 265 278 288 291 293 294 288 278 278 283 285 281 271 265 255 253 251 238 185 189 204
312 309 308 313 317 341 336 310 303 286 300 309 312 309 310 318 330 321 312 308 300 289 276 265 281 288 293 296 285 276 278 271 263 256 251 265 264 259 259 248 183 190 203
310 303 304 310 314 326 343 319 306 297 301 306 312 319 319 313 341 320 301 303 301 292 257 255 265 270 283 280 278 275 267 261 264 262 241 260 269 263 253 248 208 195 203
288 293 303 302 311 321 16 339 313 299 308 311 312 301 342 317 336 325 305 305 302 305 305 286 264 252 254 249 235 252 270 272 275 277 261 252 265 269 256 239 234 212 209